Other Public Products
Issued by NWS Charleston, SC

Home | Current Version | Previous Version | Text Only | Print | Product List | Glossary On
Versions: 1 2 3 4 5 6 7 8 9 10 11 12 13 14 15 16 17 18 19 20 21 22 23 24 25 26 27 28 29 30 31 32 33 34 35 36 37 38 39 40 41 42 43 44 45 46 47 48 49 50
000
FPUS82 KCHS 262212
OPUCHS

TEST...KCHS/KSAV Gateway Observations...TEST
National Weather Service Charleston SC
600 PM EDT THU APR 26 2018

NOTE: "fair" indicates few or no clouds below 12,000 feet with no
significant weather and/or obstructions to visibility.

SCZ050-WAZ558-NCZ071-TXZ119-213-PAZ071-DCZ001-FLZ074-172-MI076-
NYZ176-178-MAZ016-IL014-TNZ027-NJZ106-GAZ044-MD014-262300-

...Gateway Observations for Charleston International...

CITY           SKY/WX    TMP DP  RH WIND       PRES   REMARKS
Chas Airport   PTSUNNY   74  58  57 S13       29.83S
Seattle        SUNNY     81  46  29 N10       29.94F
Charlotte      LGT RAIN  63  59  87 NW3       29.84R FOG
Dallas DFW     MOSUNNY   71  45  39 CALM      29.93F
Dallas Love    MOSUNNY   73  45  36 N12       29.94F
Philladelphia  FAIR      66  41  40 W14       29.83R
Wash National  FAIR      72  35  25 W8        29.84R
Baltimore      FAIR      69  34  27 S6        29.84R
Miami          PTSUNNY   81  68  64 SE10      29.88F
Detroit        FAIR      64  35  34 SW7       29.85F
Newark         FAIR      69  43  38 W13G22    29.78R
Laguardia      FAIR      70  40  33 W12       29.77R
J F K          PTSUNNY   65  46  50 SW14      29.79R
Boston Logan   FAIR      64  40  41 W17G24    29.69R
Ft. Lauderdale PTSUNNY   80  67  64 SE16      29.87S
Chicago O`Hare CLOUDY    65  28  24 SW7       29.85F
Chicago Midway CLOUDY    65  28  24 CALM      29.86F
Houston Bush   FAIR      77  45  32 N13       29.92F
Houston Hobby  FAIR      76  45  33 W6        29.91F
Nashville      LGT RAIN  58  53  84 N3        29.88R
Atlanta        PTSUNNY   59  55  87 SE5       29.81S

$$

GAZ044-118-TXZ119-213-NCZ071-DCZ001-MDZ014-506-PAZ021-071-NJZ106-
NYZ176-178-MAZ106-OHZ011-021-055-MIZ076-KYZ091-ILZ014-INZ047-
MNZ060-ONZ431-262300-

...Gateway Observations for Savannah International...

CITY           SKY/WX    TMP DP  RH WIND       PRES   REMARKS
Savannah Arpt  PTSUNNY   76  60  57 SE13      29.81F
Atlanta        PTSUNNY   59  55  87 SE5       29.81S
Charlotte      LGT RAIN  63  59  87 NW3       29.84R FOG
Dallas DFW     MOSUNNY   71  45  39 CALM      29.93F
Houston Bush   FAIR      77  45  32 N13       29.92F
Wash National  FAIR      72  35  25 W8        29.84R
Wash Dulles    PTSUNNY   71  36  27 N3        29.84R
Baltimore      FAIR      69  34  27 S6        29.84R
Philadelphia   FAIR      66  41  40 W14       29.83R
Newark         FAIR      69  43  38 W13G22    29.78R
Laguardia      FAIR      70  40  33 W12       29.77R
J F K          PTSUNNY   65  46  50 SW14      29.79R
Boston         FAIR      64  40  41 W17G24    29.69R
Pittsburg      PTSUNNY   60  32  34 CALM      29.85S
Akron          FAIR      62  36  37 NW9       29.86S
Cleveland      FAIR      53  35  50 N9        29.91S
Cincinnati     PTSUNNY   66  32  28 CALM      29.83S
Columbus       FAIR      64  42  46 NW3       29.83S
Detroit        FAIR      64  35  34 SW7       29.85F
Chicago O`Hare CLOUDY    65  28  24 SW7       29.85F
Minneapolis    FAIR      65  31  28 NW18      29.87R
Indianapolis   FAIR      65  33  30 NW7       29.85S
Toronto Canada PTSUNNY   61  36  39 W12       29.82S

$$




USA.gov is the U.S. government's official web portal to all federal, state and local government web resources and services.